Location: Roanoke
(37.2710°N, 79.9420°W)
Time: 17:46:59
(UTC-05:00)

Transit 2A - Pass Details

Date: 25 November 2019
Orbit: 602 x 957 km, 66.7° (Epoch: 06 December)

Event Time Altitude Azimuth Distance (km) Brightness Sun altitude
Rises 18:56:51 0° 345° (NNW) 2,857 9.0 -22.1°
Enters shadow 18:59:18 - 359° (N) 2,012 8.1 -22.6°
Reaches altitude 10° 18:59:28 10° 360° (N) 1,962 - -22.6°
Maximum altitude 19:02:59 23° 54° (NE) 1,320 - -23.3°
Drops below altitude 10° 19:06:38 10° 107° (ESE) 2,036 - -24.0°
Sets 19:09:23 0° 122° (ESE) 2,994 - -24.6°
